Theta_e
316 315 315 315 314 314 314 313 313 312 312 312 312 313 314 315 317 318 319 322 323 324 325 323 322 328 332 329 329 329 329 331 333 332 331 329 327 324 322 319 315 311 309
315 314 314 314 314 314 313 312 312 311 311 312 312 313 314 316 317 319 319 324 323 323 318 318 325 328 328 327 327 327 328 328 330 330 328 323 318 316 316 315 312 309 306
314 314 313 313 313 313 312 312 311 311 311 311 312 313 315 316 317 318 323 322 321 318 318 323 323 323 323 323 323 322 323 324 325 325 324 315 311 311 310 309 307 308 307
314 314 313 312 312 312 312 311 310 309 310 311 312 314 314 316 318 320 323 321 318 318 321 320 321 321 319 319 318 318 318 318 318 320 314 307 307 305 307 307 305 304 305
312 312 311 311 310 310 311 310 308 308 307 309 309 312 315 317 320 322 321 319 319 318 318 317 317 317 316 316 312 313 313 313 312 310 306 305 304 304 304 303 303 302 302
310 310 309 308 308 308 308 307 306 306 307 308 311 312 315 317 319 318 319 319 318 315 314 313 312 310 309 310 310 309 307 307 306 305 304 304 303 303 302 301 300 302 302
307 307 307 306 306 305 305 305 305 305 306 307 310 312 314 316 317 316 318 316 314 313 311 308 307 306 305 305 305 305 304 304 303 303 302 301 301 300 300 301 301 301 300
304 304 304 303 303 303 303 304 304 305 305 308 310 312 314 315 315 315 313 313 312 310 308 307 306 305 304 304 304 302 301 300 301 300 300 300 300 300 301 301 301 301 301
301 301 301 301 301 301 303 304 304 304 307 307 310 312 313 314 314 312 312 310 308 306 306 305 304 302 302 303 303 302 300 299 299 299 300 300 300 300 300 301 302 302 303
299 299 299 299 300 300 302 303 305 306 306 307 310 311 312 312 309 310 309 307 304 301 301 299 299 300 302 303 304 303 302 301 301 301 301 301 301 300 301 301 302 302 302
298 298 298 298 299 300 301 301 303 304 306 307 309 309 307 307 306 306 303 300 300 299 299 299 297 298 299 301 302 302 301 301 301 301 301 301 301 301 302 301 300 300 300
297 298 298 298 299 300 301 301 303 304 305 305 306 304 304 304 305 304 302 300 300 297 297 297 298 299 299 299 298 298 299 300 300 301 300 300 301 301 300 300 300 300 299
297 298 298 298 299 300 301 301 303 303 303 303 304 303 303 303 303 301 302 298 297 297 297 297 298 299 300 299 299 299 300 301 301 301 301 301 300 301 300 300 301 300 300
298 298 299 300 300 301 300 302 303 302 302 303 302 301 300 301 300 298 298 298 297 297 297 298 298 299 300 300 300 299 298 299 300 301 301 301 301 301 300 301 302 301 301
299 299 300 300 301 301 302 302 302 301 302 302 301 300 301 300 300 299 299 299 300 299 300 299 299 299 299 299 299 299 299 299 298 299 300 301 301 301 301 301 301 301 301
301 301 300 301 302 302 302 301 300 301 300 300 300 300 299 299 299 299 298 297 297 297 298 297 297 297 297 298 298 298 298 298 298 298 299 300 300 300 300 301 299 300 300
302 301 302 302 302 302 301 301 299 299 299 299 300 300 300 299 297 297 296 296 295 297 297 297 297 297 297 297 297 297 297 297 297 297 298 299 299 300 299 299 298 298 299
303 302 303 302 302 300 300 299 298 298 298 298 298 297 296 296 295 295 296 297 297 297 297 297 296 296 296 296 296 295 295 296 296 296 297 298 298 299 299 299 299 298 299
303 302 301 300 299 299 299 300 299 298 297 296 295 294 294 294 295 295 296 296 295 295 295 295 295 295 295 295 295 295 295 295 295 296 296 297 297 297 299 299 299 298 299
301 300 300 300 299 298 299 299 298 298 297 296 295 295 295 296 296 295 295 295 294 294 294 294 294 294 294 294 294 294 294 295 295 294 295 296 296 297 298 299 298 299 298
299 299 298 298 298 299 300 299 298 297 297 296 295 295 295 295 295 294 294 294 293 293 293 293 293 293 293 294 294 294 293 294 294 294 294 294 295 297 297 298 298 298 298
300 300 299 299 300 300 298 297 296 296 295 295 294 294 294 295 294 294 293 293 293 293 293 293 293 293 293 293 293 293 293 293 293 293 294 295 296 298 297 298 297 297 298
299 301 301 299 298 297 297 297 297 296 296 295 295 295 295 294 294 294 293 293 292 292 292 292 293 293 292 292 291 291 292 292 293 294 296 297 297 297 296 297 297 298 299
301 300 300 299 298 298 298 297 296 296 296 295 295 294 294 294 293 293 293 292 292 292 292 292 292 292 292 292 290 288 289 290 292 293 295 296 296 296 296 297 296 298 299
300 300 299 298 298 297 297 296 296 295 294 294 294 294 293 293 293 293 292 292 292 292 291 291 291 290 289 289 288 288 288 289 291 292 293 295 296 296 296 296 296 298 299
300 299 298 298 298 297 297 296 295 294 294 294 293 293 293 293 293 292 292 292 292 291 291 290 290 290 290 289 288 288 288 288 289 290 292 292 293 295 296 296 296 297 298
Wind_Speed
15 15 15 16 17 18 20 22 22 26 28 27 24 24 23 23 23 22 22 22 23 25 25 27 30 29 29 32 32 32 31 28 30 24 24 22 18 18 19 22 22 16 9
16 17 17 17 18 20 20 23 25 27 26 25 22 22 22 22 21 20 21 21 20 24 28 32 28 26 24 25 23 24 22 21 20 22 21 15 15 14 18 21 17 12 9
20 20 20 20 21 22 22 21 22 22 23 22 21 21 21 21 20 21 20 18 20 27 28 25 18 14 15 18 16 15 15 15 15 16 16 13 14 14 18 16 12 10 8
23 25 25 24 23 24 23 21 21 21 22 21 20 20 21 20 19 20 18 21 23 23 18 13 13 13 9 10 10 9 9 8 6 7 12 19 19 17 14 14 14 10 10
27 27 27 27 25 24 23 21 22 22 23 21 18 19 19 19 17 17 18 19 18 13 8 7 2 4 5 4 3 6 6 5 5 9 17 21 21 18 15 13 13 10 8
29 31 30 27 26 24 22 23 25 25 22 15 18 17 18 16 16 16 13 14 11 6 2 9 13 16 16 14 14 14 15 15 17 19 22 21 18 15 14 11 7 8 5
31 29 27 24 23 25 25 28 30 25 20 15 17 14 16 14 13 10 9 6 5 8 13 13 13 15 17 19 21 24 24 22 20 19 19 17 15 13 11 7 2 3 3
31 29 27 24 26 25 21 20 18 17 15 14 13 13 11 9 8 4 4 10 14 17 15 15 15 16 17 19 21 24 24 22 19 16 14 12 10 10 7 8 9 10 9
26 24 20 19 17 14 14 14 14 12 12 14 11 9 6 5 4 5 10 16 21 23 18 16 16 16 19 18 18 22 22 24 27 26 24 21 16 13 12 9 6 4 3
21 19 16 15 13 17 10 8 8 11 12 11 9 5 5 6 8 9 17 20 24 23 21 19 17 18 21 19 18 19 20 18 18 19 19 18 19 17 14 11 10 8 6
19 16 15 11 11 13 10 7 11 7 8 9 8 7 8 9 14 21 28 26 21 25 21 19 23 20 18 21 21 18 19 14 14 13 13 13 14 14 13 13 13 12 10
13 12 10 10 8 7 10 8 5 7 11 12 12 14 13 13 17 22 23 23 24 26 26 26 24 24 25 27 26 24 20 14 14 14 13 13 13 12 12 13 15 15 14
10 9 9 9 7 7 6 2 10 12 15 18 18 22 25 23 23 24 27 24 23 27 27 27 23 23 23 23 23 19 15 13 13 13 13 12 11 10 12 13 13 14 13
11 10 11 11 11 10 7 10 13 16 21 23 28 31 31 30 31 30 26 25 24 24 21 21 21 20 19 19 15 16 17 15 13 12 11 11 10 11 11 10 7 7 9
17 17 16 15 14 16 17 17 17 21 24 29 31 32 31 29 27 27 22 17 16 18 17 16 15 15 15 15 15 15 13 13 13 12 11 11 10 10 10 11 10 8 10
21 21 21 22 23 25 28 29 25 27 30 32 32 32 29 27 24 20 19 21 21 21 20 19 18 16 16 15 15 13 13 13 14 13 12 12 11 11 11 11 9 9 9
27 27 28 29 31 35 40 44 42 35 33 31 29 28 26 23 23 24 25 25 24 22 20 19 18 17 16 15 15 15 14 15 13 13 13 12 11 11 13 13 13 8 8
28 29 32 35 41 45 43 38 35 34 34 30 25 25 25 26 26 26 26 22 21 20 19 19 18 16 16 16 15 15 14 13 14 13 12 12 11 11 11 11 12 10 7
30 33 39 42 41 37 33 32 29 28 29 29 28 28 26 26 27 26 21 21 21 20 19 19 18 17 16 16 15 15 14 15 15 14 13 12 12 11 10 11 10 10 8
37 40 38 40 40 38 33 29 27 27 27 26 25 22 20 20 21 21 21 21 21 20 19 19 18 17 17 15 15 15 15 15 15 14 13 12 12 12 11 12 11 12 8
37 37 35 33 38 32 26 25 25 25 24 21 21 21 21 20 21 21 21 20 19 19 19 18 17 17 17 17 16 16 15 15 15 15 15 13 13 12 12 12 14 12 7
36 38 39 36 25 24 25 25 25 25 25 25 23 23 23 21 21 21 20 20 20 19 18 17 17 17 17 16 16 16 17 17 17 16 16 15 14 11 13 12 12 12 10
38 39 31 26 26 27 26 25 25 24 23 22 20 19 19 20 20 20 20 19 18 18 17 17 16 16 16 17 17 16 15 16 18 17 16 14 14 13 14 13 14 13 12
32 26 25 24 23 23 23 23 23 22 21 20 19 19 19 19 19 19 18 17 17 17 17 17 18 17 16 16 17 20 21 18 15 18 16 15 14 14 14 13 15 15 12
23 22 22 22 23 23 23 21 20 20 19 19 19 19 19 18 18 17 17 16 16 16 16 15 16 17 19 19 20 22 23 21 21 21 17 16 15 14 15 14 14 17 14
21 21 21 21 20 19 19 19 19 19 19 19 18 18 17 17 16 16 16 16 16 16 16 17 18 18 19 20 20 21 22 22 24 23 17 17 18 15 15 15 15 16 15
Wind_Direction
270 275 278 284 284 281 287 294 294 296 300 298 297 294 293 293 293 288 283 283 281 282 282 285 289 288 280 279 279 279 280 274 270 265 270 269 263 252 237 210 200 192 171
270 274 281 287 286 282 290 293 296 297 298 297 297 295 294 294 295 290 286 279 283 285 291 294 292 282 284 285 286 284 280 279 271 262 254 241 237 223 205 198 194 186 148
271 276 287 291 289 287 290 290 295 296 296 296 293 292 292 294 293 288 287 286 287 296 301 295 287 282 283 284 281 283 282 276 267 261 238 208 190 194 187 175 170 177 180
278 280 285 289 290 286 284 284 293 294 294 292 289 290 291 294 290 286 288 289 296 304 293 275 286 289 286 297 305 308 308 305 288 230 186 163 163 150 158 151 149 150 143
284 281 284 288 287 283 277 277 286 292 289 282 290 290 292 288 284 284 288 293 298 271 269 298 351 23 17 0 19 3 15 45 102 144 145 138 134 140 141 139 138 130 122
285 284 286 283 281 277 271 272 285 287 284 282 286 289 289 285 287 288 290 287 264 253 165 87 72 65 61 59 75 84 86 87 104 122 130 132 132 133 127 124 95 73 58
282 281 281 277 274 272 274 279 279 273 272 275 285 283 279 287 290 298 288 247 207 145 113 101 89 81 79 80 81 83 83 87 95 108 112 109 113 109 94 66 75 91 97
279 278 274 272 275 277 275 274 270 264 263 282 265 270 276 287 286 277 204 184 159 141 124 102 102 99 94 90 88 84 77 77 80 86 91 96 98 87 95 102 84 64 46
275 274 273 269 263 270 266 267 259 265 270 258 262 251 264 264 247 189 180 155 134 113 102 100 100 100 98 97 92 90 83 78 76 73 72 71 78 96 106 75 38 4 45
271 267 264 263 264 252 250 251 286 247 246 254 222 206 208 193 177 179 154 137 123 106 101 106 105 106 104 98 94 92 85 76 64 63 57 58 58 63 74 71 52 50 31
264 258 252 249 240 250 244 250 265 271 225 187 169 150 157 158 149 148 135 121 120 116 102 95 94 95 105 109 102 94 88 75 70 69 67 63 61 59 57 55 61 55 50
241 236 228 220 213 209 223 250 258 207 172 148 143 131 121 128 142 146 131 122 114 112 107 98 95 96 94 88 76 71 69 67 70 68 66 62 57 58 54 54 54 53 45
185 184 188 189 183 181 181 136 158 158 143 133 127 119 117 118 118 116 112 112 112 109 105 98 95 95 90 80 72 66 66 64 62 60 53 49 46 47 37 31 33 44 40
144 145 133 129 127 123 128 147 139 133 131 129 127 122 120 119 115 113 117 114 100 97 100 94 88 87 81 66 64 60 59 58 60 56 54 52 45 33 38 33 34 30 23
115 123 124 125 121 125 121 118 117 128 130 128 124 119 118 119 119 121 119 103 108 110 101 94 91 84 76 67 60 55 54 50 47 47 47 44 41 30 33 26 26 39 25
116 119 121 120 118 112 109 107 104 110 112 110 109 113 115 113 118 118 112 115 114 102 94 86 79 71 67 63 57 53 50 44 41 38 38 38 33 27 24 25 26 31 25
115 119 119 117 115 114 112 111 111 108 108 110 110 108 109 115 113 114 113 108 97 85 84 80 74 68 63 58 53 47 41 37 36 34 32 33 33 30 29 19 30 26 28
115 118 119 120 118 116 112 111 111 110 108 104 103 108 107 104 103 100 88 81 82 80 78 73 69 64 59 54 48 43 39 36 31 30 30 32 32 29 25 32 21 26 41
119 120 121 117 116 112 111 110 106 104 102 101 100 96 96 99 99 94 91 84 80 75 72 70 66 60 54 49 43 38 37 31 33 29 27 28 32 31 30 34 22 24 50
121 121 119 124 122 113 106 102 102 101 100 99 95 92 90 90 86 82 79 78 77 75 71 67 62 56 53 49 44 39 36 34 30 28 26 29 33 32 27 33 24 26 43
121 119 113 116 118 101 102 105 102 103 104 101 99 106 101 92 87 83 81 78 75 72 69 66 62 58 52 47 43 41 38 35 32 29 25 27 31 36 29 28 20 27 55
124 121 121 114 102 106 103 100 102 100 98 97 97 94 92 91 88 85 81 76 72 70 68 66 62 56 53 49 45 38 37 35 32 30 28 28 39 31 38 30 19 33 42
125 123 111 105 105 99 101 102 101 100 100 99 99 96 92 90 88 85 81 77 75 72 69 65 61 57 51 48 44 43 42 36 31 34 38 35 37 37 30 34 28 38 43
113 105 103 104 106 106 106 106 105 104 103 102 101 99 96 93 91 87 82 79 76 72 69 64 62 62 59 52 49 52 53 53 44 35 41 37 37 36 39 37 25 34 50
104 106 105 105 106 106 104 105 104 104 103 102 101 100 98 95 92 88 84 81 79 73 69 67 62 60 64 66 62 58 54 55 64 60 39 44 41 37 38 40 30 43 47
108 107 107 108 107 108 107 106 106 107 106 105 103 101 99 96 93 90 87 84 79 74 71 69 69 68 66 64 61 57 55 54 61 59 45 42 42 49 39 40 36 43 48